Location: Oberwangen
(47.4286°N, 8.9679°E)
Time: 14:29:09
(UTC+00:00)

Cosmos 2322 Rocket - Pass Details

Date: 20 June 2021
Orbit: 833 x 850 km, 71.0° (Epoch: 02 August)

Event Time Altitude Azimuth Distance (km) Brightness Sun altitude
Rises 20:44:10 0° 230° (SW) 3,404 5.3 -10.3°
Reaches altitude 10° 20:46:45 10° 238° (WSW) 2,473 4.7 -10.6°
Maximum altitude 20:52:05 40° 307° (NW) 1,243 3.7 -11.1°
Drops below altitude 10° 20:57:26 10° 16° (NNE) 2,487 5.2 -11.7°
Sets 21:00:03 0° 24° (NNE) 3,425 5.8 -11.9°
